Location: Los Ranchitos
(37.9930°N, 122.5425°W)
Time: 02:39:27
(UTC+00:00)

Cosmos 1513 Rocket - Pass Details

Date: 21 September 2020
Orbit: 939 x 1009 km, 82.9° (Epoch: 27 October)

Event Time Altitude Azimuth Distance (km) Brightness Sun altitude
Rises 03:18:51 0° 184° (S) 3,693 7.4 -14.4°
Reaches altitude 10° 03:21:22 10° 185° (S) 2,740 6.8 -14.9°
Maximum altitude 03:27:40 89° 93° (E) 982 4.5 -16.1°
Drops below altitude 10° 03:33:53 10° 7° (N) 2,707 6.9 -17.3°
Sets 03:36:23 0° 7° (N) 3,648 7.6 -17.8°
